Home > Weather > Albany > Past weeks

Flag for Australia Past Weather in Albany, Western Australia, Australia — Yesterday and Last 2 Weeks

Now
55 °F

Overcast.


Feels Like: 51 °F
Forecast: 51 / 54 °F
Wind: 16 mph from South

Location: Albany Airport

Current Time: Aug 28, 2016 at 5:03:26 PM

Latest Report: Aug 28, 2016 at 3:00 PM


Visibility: N/A

Pressure: 29.75 "Hg

Humidity: 87%

Dew Point: 51 °F

Location of AlbanyLocation

Past Weather in Albany — Graph

°F

Albany Temperature Yesterday

Maximum temperature yesterday: 61 °F (at 3:00 PM)
Minimum temperature yesterday: 51 °F (at 6:00 AM)
Average temperature yesterday: 54 °F

High & Low Weather Summary for the Past Weeks

 TemperatureHumidityPressure
High67 °F (Aug 26, 2:00 PM)100% (Aug 15, 9:00 PM)30.36 "Hg (Aug 15, 9:00 PM)
Low35 °F (Aug 24, 2:00 AM)40% (Aug 25, 3:00 PM)29.32 "Hg (Aug 27, 2:00 PM)
Average52 °F75%29.97 "Hg
* Reported Aug 13 3:00 PM — Aug 28 3:00 PM, Albany, Weather by CustomWeather, © 2016

Note: Actual official high and low records may vary slightly from our data, if they occured in-between our weather recording intervals... More about our weather records

Advertising

Albany Weather History for the Previous 24 Hours

Scroll right to see more
 ConditionsComfort  
Time TempWeatherWind HumidityBarometerVisibility
3:00 PM
Sun, Aug 28
55 °FOvercast.16 mph87%29.75 "HgN/A
2:00 PM54 °FCool.15 mph91%29.73 "HgN/A
12:00 PM57 °FOvercast.17 mph70%29.72 "HgN/A
11:00 AM57 °FCool.13 mph77%29.70 "HgN/A
9:00 AM53 °FOvercast.17 mph92%29.67 "Hg4 mi
8:00 AM53 °FCool.20 mph91%29.63 "HgN/A
6:00 AM53 °FOvercast.16 mph90%29.57 "HgN/A
5:00 AM53 °FCool.17 mph85%29.54 "HgN/A
3:00 AM53 °FLow clouds.21 mph95%29.44 "Hg4 mi
2:00 AM52 °FCool.20 mph95%29.44 "HgN/A
12:00 AM52 °FOvercast.18 mph94%29.47 "HgN/A
11:00 PM
Sat, Aug 27
52 °FCool.15 mph90%29.47 "HgN/A
9:00 PM53 °FOvercast.10 mph89%29.44 "HgN/A
8:00 PM52 °FCool.9 mph92%29.41 "HgN/A
6:00 PM53 °FOvercast.7 mph94%29.35 "HgN/A
5:00 PM54 °FCool.8 mph86%29.32 "HgN/A
Weather by CustomWeather, © 2016

See weather overviewHow to use our weather pages